| time (UTC) | temp F | wind direction | speed MPH | gust MPH | rain 1hr in | rain 24hr in | rain mn in | humidity % | barometer mb |
| 20260507042905 | 57 | 243 | 3.0 | 6.0 | 0.00 | 0.00 | 0.00 | 94 | 1015.0 |
| 20260507041905 | 57 | 224 | 2.0 | 5.0 | 0.00 | 0.00 | 0.00 | 94 | 1015.0 |
| 20260507040905 | 57 | 240 | 2.0 | 3.0 | 0.00 | 0.00 | 0.00 | 95 | 1015.0 |
| 20260507040405 | 57 | 245 | 1.0 | 3.0 | 0.00 | 0.00 | 0.00 | 95 | 1015.0 |
| 20260507035405 | 58 | 225 | 0.0 | 5.0 | 0.00 | 0.00 | 0.00 | 95 | 1015.0 |
| 20260507034905 | 58 | 248 | 0.0 | 5.0 | 0.00 | 0.00 | 0.00 | 95 | 1015.0 |
| 20260507033905 | 58 | 212 | 1.0 | 3.0 | 0.00 | 0.00 | 0.00 | 95 | 1015.0 |
| 20260507033405 | 58 | 202 | 0.0 | 2.0 | 0.00 | 0.00 | 0.00 | 94 | 1015.0 |
| 20260507032905 | 58 | 201 | 1.0 | 2.0 | 0.00 | 0.00 | 0.00 | 94 | 1015.0 |
| 20260507032405 | 57 | 202 | 0.0 | 2.0 | 0.00 | 0.00 | 0.00 | 94 | 1015.0 |
| 20260507031904 | 57 | 234 | 1.0 | 5.0 | 0.00 | 0.00 | 0.00 | 94 | 1015.0 |
| 20260507031406 | 57 | 225 | 0.0 | 5.0 | 0.00 | 0.00 | 0.00 | 93 | 1015.0 |
| 20260507030904 | 57 | 243 | 2.0 | 5.0 | 0.00 | 0.00 | 0.00 | 92 | 1015.0 |
| 20260507030405 | 58 | 214 | 2.0 | 5.0 | 0.00 | 0.00 | 0.00 | 92 | 1015.0 |
| 20260507025405 | 58 | 247 | 1.0 | 6.0 | 0.00 | 0.00 | 0.00 | 92 | 1014.0 |
| 20260507024905 | 58 | 237 | 2.0 | 6.0 | 0.00 | 0.00 | 0.00 | 92 | 1014.0 |
| 20260507023405 | 58 | 247 | 2.0 | 5.0 | 0.00 | 0.00 | 0.00 | 92 | 1014.0 |
| 20260507022905 | 58 | 240 | 2.0 | 3.0 | 0.00 | 0.00 | 0.00 | 91 | 1015.0 |
| 20260507022405 | 58 | 248 | 2.0 | 3.0 | 0.00 | 0.00 | 0.00 | 91 | 1015.0 |
| 20260507021905 | 58 | 248 | 0.0 | 2.0 | 0.00 | 0.00 | 0.00 | 91 | 1015.0 |
| 20260507021405 | 58 | 260 | 1.0 | 2.0 | 0.00 | 0.00 | 0.00 | 91 | 1015.0 |
| 20260507020906 | 58 | 248 | 1.0 | 2.0 | 0.00 | 0.00 | 0.00 | 91 | 1015.0 |
| 20260507020410 | 58 | 256 | 2.0 | 3.0 | 0.00 | 0.00 | 0.00 | 91 | 1015.0 |
| 20260507015905 | 58 | 236 | 1.0 | 5.0 | 0.00 | 0.00 | 0.00 | 91 | 1015.0 |
| 20260507014907 | 58 | 286 | 2.0 | 3.0 | 0.00 | 0.00 | 0.00 | 91 | 1015.0 |
| 20260507014407 | 58 | 292 | 2.0 | 3.0 | 0.00 | 0.00 | 0.00 | 92 | 1014.0 |
| 20260507013912 | 58 | 257 | 1.0 | 3.0 | 0.00 | 0.00 | 0.00 | 92 | 1014.0 |
| 20260507013406 | 58 | 248 | 2.0 | 5.0 | 0.00 | 0.00 | 0.00 | 94 | 1014.0 |
| 20260507012408 | 58 | 191 | 2.0 | 5.0 | 0.00 | 0.00 | 0.00 | 94 | 1014.0 |
| 20260507011907 | 59 | 191 | 3.0 | 5.0 | 0.00 | 0.00 | 0.00 | 92 | 1014.0 |
| 20260507010406 | 59 | 275 | 2.0 | 5.0 | 0.00 | 0.00 | 0.00 | 88 | 1014.0 |
| 20260507005906 | 59 | 248 | 1.0 | 5.0 | 0.00 | 0.00 | 0.00 | 88 | 1015.0 |
| 20260507005406 | 59 | 282 | 1.0 | 5.0 | 0.00 | 0.00 | 0.00 | 88 | 1015.0 |
| 20260507004910 | 59 | 266 | 2.0 | 5.0 | 0.00 | 0.00 | 0.00 | 87 | 1015.0 |
| 20260507003407 | 59 | 250 | 2.0 | 6.0 | 0.00 | 0.00 | 0.00 | 87 | 1014.0 |
| 20260507002906 | 59 | 251 | 3.0 | 6.0 | 0.00 | 0.00 | 0.00 | 87 | 1014.0 |
| 20260507002407 | 59 | 244 | 2.0 | 6.0 | 0.00 | 0.00 | 0.00 | 87 | 1014.0 |
| 20260507001906 | 59 | 245 | 2.0 | 6.0 | 0.00 | 0.00 | 0.00 | 86 | 1014.0 |
| 20260507000909 | 60 | 250 | 4.0 | 7.0 | 0.00 | 0.00 | 0.00 | 84 | 1014.0 |
| 20260507000406 | 60 | 249 | 3.0 | 6.0 | 0.00 | 0.00 | 0.00 | 84 | 1014.0 |
| 20260506235907 | 60 | 269 | 3.0 | 6.0 | 0.00 | 0.00 | 0.00 | 84 | 1014.0 |
| 20260506235406 | 60 | 234 | 2.0 | 6.0 | 0.00 | 0.00 | 0.00 | 84 | 1014.0 |
| 20260506234918 | 60 | 251 | 3.0 | 6.0 | 0.00 | 0.00 | 0.00 | 84 | 1014.0 |
| 20260506233406 | 60 | 288 | 2.0 | 5.0 | 0.00 | 0.00 | 0.00 | 83 | 1014.0 |
| 20260506232906 | 60 | 248 | 3.0 | 6.0 | 0.00 | 0.00 | 0.00 | 83 | 1015.0 |
| 20260506231906 | 61 | 290 | 5.0 | 6.0 | 0.00 | 0.00 | 0.00 | 83 | 1015.0 |
| 20260506231408 | 61 | 271 | 3.0 | 7.0 | 0.00 | 0.00 | 0.00 | 82 | 1015.0 |
| 20260506230906 | 61 | 263 | 3.0 | 7.0 | 0.00 | 0.00 | 0.00 | 82 | 1015.0 |
| 20260506230406 | 61 | 290 | 4.0 | 7.0 | 0.00 | 0.00 | 0.00 | 82 | 1015.0 |
| 20260506224910 | 61 | 228 | 3.0 | 15.0 | 0.00 | 0.00 | 0.00 | 82 | 1015.0 |
| 20260506224406 | 61 | 281 | 3.0 | 15.0 | 0.00 | 0.00 | 0.00 | 83 | 1015.0 |
| 20260506223906 | 61 | 238 | 2.0 | 5.0 | 0.00 | 0.00 | 0.00 | 82 | 1015.0 |
| 20260506222906 | 61 | 270 | 2.0 | 5.0 | 0.00 | 0.00 | 0.00 | 82 | 1015.0 |
| 20260506222408 | 61 | 270 | 2.0 | 7.0 | 0.00 | 0.00 | 0.00 | 82 | 1015.0 |
| 20260506220906 | 61 | 254 | 2.0 | 5.0 | 0.00 | 0.00 | 0.00 | 83 | 1015.0 |
| 20260506220407 | 61 | 222 | 2.0 | 6.0 | 0.00 | 0.00 | 0.00 | 82 | 1015.0 |
| 20260506215906 | 61 | 281 | 4.0 | 6.0 | 0.00 | 0.00 | 0.00 | 83 | 1015.0 |
| 20260506214921 | 61 | 202 | 3.0 | 6.0 | 0.00 | 0.00 | 0.00 | 83 | 1015.0 |
| 20260506214422 | 61 | 252 | 3.0 | 7.0 | 0.00 | 0.00 | 0.00 | 82 | 1015.0 |
| 20260506213406 | 61 | 284 | 3.0 | 6.0 | 0.00 | 0.00 | 0.00 | 82 | 1015.0 |
| 20260506212406 | 61 | 223 | 2.0 | 9.0 | 0.00 | 0.00 | 0.00 | 82 | 1015.0 |
| 20260506210906 | 61 | 255 | 3.0 | 8.0 | 0.00 | 0.00 | 0.00 | 81 | 1015.0 |
| 20260506210406 | 61 | 226 | 2.0 | 7.0 | 0.00 | 0.00 | 0.00 | 81 | 1015.0 |
| 20260506205906 | 61 | 257 | 3.0 | 8.0 | 0.00 | 0.00 | 0.00 | 81 | 1015.0 |
| 20260506205406 | 61 | 258 | 3.0 | 8.0 | 0.00 | 0.00 | 0.00 | 81 | 1015.0 |
| 20260506204906 | 61 | 272 | 5.0 | 8.0 | 0.00 | 0.00 | 0.00 | 81 | 1015.0 |
| 20260506204406 | 61 | 254 | 3.0 | 6.0 | 0.00 | 0.00 | 0.00 | 82 | 1015.0 |
| 20260506203406 | 61 | 250 | 3.0 | 5.0 | 0.00 | 0.00 | 0.00 | 83 | 1015.0 |
| 20260506202907 | 61 | 229 | 2.0 | 5.0 | 0.00 | 0.00 | 0.00 | 84 | 1014.0 |
| 20260506201907 | 61 | 244 | 0.0 | 5.0 | 0.00 | 0.00 | 0.00 | 86 | 1014.0 |
| 20260506201406 | 61 | 185 | 3.0 | 5.0 | 0.00 | 0.00 | 0.00 | 87 | 1014.0 |
| 20260506200412 | 61 | 222 | 1.0 | 5.0 | 0.00 | 0.00 | 0.00 | 86 | 1014.0 |
| 20260506195906 | 61 | 239 | 2.0 | 6.0 | 0.00 | 0.00 | 0.00 | 86 | 1014.0 |
| 20260506195406 | 61 | 240 | 3.0 | 6.0 | 0.00 | 0.00 | 0.00 | 87 | 1014.0 |
| 20260506194906 | 61 | 235 | 3.0 | 8.0 | 0.00 | 0.00 | 0.00 | 88 | 1014.0 |
| 20260506193907 | 61 | 203 | 4.0 | 8.0 | 0.00 | 0.00 | 0.00 | 88 | 1014.0 |
| 20260506192907 | 62 | 180 | 3.0 | 8.0 | 0.00 | 0.00 | 0.00 | 84 | 1014.0 |
| 20260506192406 | 62 | 217 | 3.0 | 8.0 | 0.00 | 0.00 | 0.00 | 82 | 1014.0 |
| 20260506191907 | 62 | 239 | 6.0 | 10.0 | 0.00 | 0.00 | 0.00 | 81 | 1014.0 |
| 20260506191406 | 62 | 255 | 4.0 | 10.0 | 0.00 | 0.00 | 0.00 | 81 | 1014.0 |
| 20260506190906 | 62 | 263 | 5.0 | 9.0 | 0.00 | 0.00 | 0.00 | 81 | 1014.0 |
| 20260506190406 | 62 | 264 | 4.0 | 8.0 | 0.00 | 0.00 | 0.00 | 80 | 1014.0 |
| 20260506185906 | 62 | 255 | 3.0 | 9.0 | 0.00 | 0.00 | 0.00 | 80 | 1013.0 |
| 20260506185407 | 62 | 255 | 4.0 | 12.0 | 0.00 | 0.00 | 0.00 | 79 | 1013.0 |
| 20260506184906 | 63 | 275 | 6.0 | 14.0 | 0.00 | 0.00 | 0.00 | 79 | 1013.0 |
| 20260506184407 | 63 | 262 | 8.0 | 14.0 | 0.00 | 0.00 | 0.00 | 75 | 1013.0 |
| 20260506183906 | 64 | 252 | 5.0 | 8.0 | 0.00 | 0.00 | 0.00 | 73 | 1013.0 |
| 20260506183406 | 64 | 281 | 5.0 | 7.0 | 0.00 | 0.00 | 0.00 | 73 | 1013.0 |
| 20260506182912 | 64 | 274 | 3.0 | 7.0 | 0.00 | 0.00 | 0.00 | 73 | 1013.0 |
| 20260506182409 | 64 | 259 | 3.0 | 8.0 | 0.00 | 0.00 | 0.00 | 72 | 1013.0 |
| 20260506181906 | 64 | 275 | 4.0 | 9.0 | 0.00 | 0.00 | 0.00 | 72 | 1013.0 |
| 20260506181406 | 64 | 254 | 6.0 | 12.0 | 0.00 | 0.00 | 0.00 | 72 | 1012.0 |
| 20260506180907 | 64 | 281 | 4.0 | 12.0 | 0.00 | 0.00 | 0.00 | 72 | 1012.0 |
| 20260506180406 | 64 | 278 | 7.0 | 10.0 | 0.00 | 0.00 | 0.00 | 71 | 1012.0 |
| 20260506175906 | 64 | 279 | 5.0 | 13.0 | 0.00 | 0.00 | 0.00 | 71 | 1013.0 |
| 20260506174906 | 65 | 284 | 5.0 | 9.0 | 0.00 | 0.00 | 0.00 | 70 | 1013.0 |
| 20260506173906 | 65 | 251 | 3.0 | 9.0 | 0.00 | 0.00 | 0.00 | 70 | 1013.0 |
| 20260506173406 | 65 | 259 | 3.0 | 10.0 | 0.00 | 0.00 | 0.00 | 70 | 1013.0 |
| 20260506172406 | 65 | 257 | 5.0 | 10.0 | 0.00 | 0.00 | 0.00 | 70 | 1013.0 |
| 20260506171906 | 65 | 268 | 5.0 | 14.0 | 0.00 | 0.00 | 0.00 | 69 | 1013.0 |
| 20260506170406 | 65 | 280 | 6.0 | 12.0 | 0.00 | 0.00 | 0.00 | 70 | 1013.0 |
| 20260506165906 | 65 | 248 | 5.0 | 16.0 | 0.00 | 0.00 | 0.00 | 70 | 1013.0 |
| 20260506164406 | 65 | 261 | 10.0 | 15.0 | 0.00 | 0.00 | 0.00 | 70 | 1014.0 |
| 20260506162905 | 66 | 281 | 12.0 | 24.0 | 0.00 | 0.00 | 0.00 | 68 | 1013.0 |
| 20260506162408 | 66 | 280 | 12.0 | 24.0 | 0.00 | 0.00 | 0.00 | 68 | 1013.0 |
| 20260506161905 | 66 | 269 | 10.0 | 21.0 | 0.00 | 0.00 | 0.00 | 70 | 1013.0 |
| 20260506161406 | 66 | 289 | 12.0 | 21.0 | 0.00 | 0.00 | 0.00 | 70 | 1013.0 |
| 20260506160906 | 66 | 273 | 7.0 | 20.0 | 0.00 | 0.00 | 0.00 | 71 | 1013.0 |
| 20260506160407 | 66 | 309 | 10.0 | 20.0 | 0.00 | 0.00 | 0.00 | 71 | 1013.0 |
| 20260506155406 | 67 | 288 | 12.0 | 20.0 | 0.00 | 0.00 | 0.00 | 66 | 1013.0 |
| 20260506154907 | 67 | 295 | 10.0 | 17.0 | 0.00 | 0.00 | 0.00 | 65 | 1013.0 |
| 20260506154405 | 67 | 295 | 10.0 | 16.0 | 0.00 | 0.00 | 0.00 | 65 | 1013.0 |
| 20260506153906 | 68 | 292 | 9.0 | 18.0 | 0.00 | 0.00 | 0.00 | 63 | 1013.0 |
| 20260506153406 | 68 | 278 | 13.0 | 18.0 | 0.00 | 0.00 | 0.00 | 62 | 1013.0 |
| 20260506152906 | 68 | 280 | 9.0 | 18.0 | 0.00 | 0.00 | 0.00 | 61 | 1013.0 |
| 20260506152413 | 68 | 275 | 10.0 | 24.0 | 0.00 | 0.00 | 0.00 | 60 | 1013.0 |
| 20260506151909 | 68 | 276 | 14.0 | 24.0 | 0.00 | 0.00 | 0.00 | 59 | 1013.0 |
| 20260506151411 | 69 | 277 | 10.0 | 22.0 | 0.00 | 0.00 | 0.00 | 59 | 1013.0 |
| 20260506150907 | 69 | 289 | 10.0 | 21.0 | 0.00 | 0.00 | 0.00 | 59 | 1013.0 |
| 20260506145905 | 69 | 277 | 9.0 | 20.0 | 0.00 | 0.00 | 0.00 | 58 | 1013.0 |
| 20260506144921 | 69 | 276 | 11.0 | 18.0 | 0.00 | 0.00 | 0.00 | 57 | 1013.0 |
| 20260506144408 | 69 | 284 | 10.0 | 24.0 | 0.00 | 0.00 | 0.00 | 55 | 1013.0 |
| 20260506143906 | 69 | 278 | 14.0 | 25.0 | 0.00 | 0.00 | 0.00 | 55 | 1013.0 |
| 20260506143406 | 69 | 271 | 17.0 | 25.0 | 0.00 | 0.00 | 0.00 | 54 | 1013.0 |
| 20260506142906 | 70 | 280 | 10.0 | 25.0 | 0.00 | 0.00 | 0.00 | 54 | 1012.0 |
| 20260506142406 | 70 | 277 | 14.0 | 25.0 | 0.00 | 0.00 | 0.00 | 53 | 1012.0 |
| 20260506141906 | 70 | 281 | 10.0 | 24.0 | 0.00 | 0.00 | 0.00 | 52 | 1012.0 |
| 20260506141406 | 70 | 292 | 14.0 | 24.0 | 0.00 | 0.00 | 0.00 | 52 | 1012.0 |
| 20260506134906 | 69 | 280 | 13.0 | 24.0 | 0.00 | 0.00 | 0.00 | 52 | 1013.0 |
| 20260506133410 | 70 | 280 | 12.0 | 17.0 | 0.00 | 0.00 | 0.00 | 52 | 1013.0 |
| 20260506132906 | 69 | 301 | 9.0 | 20.0 | 0.00 | 0.00 | 0.00 | 53 | 1013.0 |
| 20260506132413 | 69 | 286 | 12.0 | 20.0 | 0.00 | 0.00 | 0.00 | 52 | 1013.0 |
| 20260506131906 | 69 | 293 | 11.0 | 22.0 | 0.00 | 0.00 | 0.00 | 54 | 1013.0 |
| 20260506131406 | 69 | 287 | 16.0 | 28.0 | 0.00 | 0.00 | 0.00 | 54 | 1013.0 |
| 20260506130906 | 69 | 298 | 15.0 | 28.0 | 0.00 | 0.00 | 0.00 | 55 | 1013.0 |
| 20260506124909 | 69 | 307 | 14.0 | 25.0 | 0.00 | 0.00 | 0.00 | 55 | 1013.0 |
| 20260506124405 | 69 | 281 | 9.0 | 17.0 | 0.00 | 0.00 | 0.00 | 55 | 1013.0 |
| 20260506123906 | 69 | 281 | 10.0 | 17.0 | 0.00 | 0.00 | 0.00 | 55 | 1013.0 |
| 20260506122921 | 69 | 287 | 10.0 | 17.0 | 0.00 | 0.00 | 0.00 | 55 | 1013.0 |
| 20260506122407 | 69 | 266 | 13.0 | 17.0 | 0.00 | 0.00 | 0.00 | 56 | 1013.0 |
| 20260506121906 | 69 | 277 | 8.0 | 16.0 | 0.00 | 0.00 | 0.00 | 57 | 1013.0 |
| 20260506121405 | 69 | 285 | 9.0 | 16.0 | 0.00 | 0.00 | 0.00 | 58 | 1013.0 |
| 20260506120905 | 69 | 269 | 7.0 | 15.0 | 0.00 | 0.00 | 0.00 | 58 | 1013.0 |
| 20260506120405 | 69 | 296 | 8.0 | 15.0 | 0.00 | 0.00 | 0.00 | 58 | 1013.0 |
| 20260506115905 | 68 | 296 | 6.0 | 17.0 | 0.00 | 0.00 | 0.00 | 59 | 1012.0 |
| 20260506115405 | 68 | 290 | 6.0 | 20.0 | 0.00 | 0.00 | 0.00 | 59 | 1012.0 |
| 20260506114905 | 68 | 282 | 12.0 | 20.0 | 0.00 | 0.00 | 0.00 | 58 | 1012.0 |
| 20260506114405 | 68 | 285 | 9.0 | 17.0 | 0.00 | 0.00 | 0.00 | 58 | 1012.0 |
| 20260506113906 | 68 | 278 | 7.0 | 16.0 | 0.00 | 0.00 | 0.00 | 58 | 1012.0 |
| 20260506113405 | 68 | 293 | 11.0 | 18.0 | 0.00 | 0.00 | 0.00 | 58 | 1012.0 |
| 20260506112905 | 68 | 296 | 10.0 | 18.0 | 0.00 | 0.00 | 0.00 | 58 | 1013.0 |
| 20260506112405 | 68 | 292 | 10.0 | 23.0 | 0.00 | 0.00 | 0.00 | 57 | 1013.0 |
| 20260506111406 | 68 | 297 | 10.0 | 17.0 | 0.00 | 0.00 | 0.00 | 56 | 1013.0 |
| 20260506110905 | 68 | 295 | 11.0 | 17.0 | 0.00 | 0.00 | 0.00 | 55 | 1013.0 |
| 20260506110409 | 68 | 285 | 9.0 | 15.0 | 0.00 | 0.00 | 0.00 | 55 | 1013.0 |
| 20260506105908 | 68 | 283 | 10.0 | 15.0 | 0.00 | 0.00 | 0.00 | 54 | 1013.0 |
| 20260506105405 | 68 | 288 | 9.0 | 20.0 | 0.00 | 0.00 | 0.00 | 55 | 1013.0 |
| 20260506104905 | 68 | 271 | 12.0 | 20.0 | 0.00 | 0.00 | 0.00 | 55 | 1013.0 |
| 20260506103405 | 68 | 304 | 13.0 | 18.0 | 0.00 | 0.00 | 0.00 | 55 | 1013.0 |
| 20260506102907 | 68 | 299 | 9.0 | 23.0 | 0.00 | 0.00 | 0.00 | 56 | 1013.0 |
| 20260506102406 | 67 | 279 | 10.0 | 23.0 | 0.00 | 0.00 | 0.00 | 56 | 1013.0 |
| 20260506101906 | 67 | 283 | 10.0 | 23.0 | 0.00 | 0.00 | 0.00 | 57 | 1013.0 |
| 20260506101405 | 67 | 283 | 9.0 | 15.0 | 0.00 | 0.00 | 0.00 | 57 | 1013.0 |
| 20260506100905 | 67 | 284 | 6.0 | 23.0 | 0.00 | 0.00 | 0.00 | 57 | 1013.0 |
| 20260506100405 | 66 | 290 | 10.0 | 23.0 | 0.00 | 0.00 | 0.00 | 56 | 1013.0 |
| 20260506095905 | 67 | 277 | 12.0 | 17.0 | 0.00 | 0.00 | 0.00 | 59 | 1013.0 |
| 20260506095408 | 66 | 254 | 4.0 | 8.0 | 0.00 | 0.00 | 0.00 | 64 | 1013.0 |
| 20260506094905 | 66 | 272 | 2.0 | 10.0 | 0.00 | 0.00 | 0.00 | 66 | 1013.0 |
| 20260506093905 | 66 | 257 | 4.0 | 12.0 | 0.00 | 0.00 | 0.00 | 65 | 1013.0 |
| 20260506093405 | 66 | 272 | 7.0 | 12.0 | 0.00 | 0.00 | 0.00 | 66 | 1013.0 |
| 20260506092905 | 66 | 272 | 3.0 | 10.0 | 0.00 | 0.00 | 0.00 | 68 | 1013.0 |
| 20260506092405 | 65 | 237 | 2.0 | 7.0 | 0.00 | 0.00 | 0.00 | 69 | 1013.0 |
| 20260506091905 | 65 | 279 | 2.0 | 7.0 | 0.00 | 0.00 | 0.00 | 69 | 1013.0 |
| 20260506091405 | 65 | 286 | 2.0 | 7.0 | 0.00 | 0.00 | 0.00 | 69 | 1013.0 |
| 20260506090905 | 65 | 261 | 2.0 | 5.0 | 0.00 | 0.00 | 0.00 | 69 | 1013.0 |
| 20260506090405 | 64 | 254 | 1.0 | 5.0 | 0.00 | 0.00 | 0.00 | 68 | 1013.0 |
| 20260506085905 | 64 | 244 | 2.0 | 5.0 | 0.00 | 0.00 | 0.00 | 69 | 1013.0 |
| 20260506085405 | 64 | 246 | 2.0 | 6.0 | 0.00 | 0.00 | 0.00 | 69 | 1013.0 |
| 20260506084405 | 64 | 255 | 3.0 | 7.0 | 0.00 | 0.00 | 0.00 | 69 | 1013.0 |
| 20260506083905 | 64 | 260 | 3.0 | 6.0 | 0.00 | 0.00 | 0.00 | 69 | 1013.0 |
| 20260506082405 | 65 | 257 | 4.0 | 9.0 | 0.00 | 0.00 | 0.00 | 69 | 1013.0 |
| 20260506081907 | 65 | 248 | 5.0 | 8.0 | 0.00 | 0.00 | 0.00 | 68 | 1013.0 |
| 20260506081405 | 65 | 251 | 3.0 | 8.0 | 0.00 | 0.00 | 0.00 | 69 | 1013.0 |
| 20260506080905 | 64 | 254 | 4.0 | 8.0 | 0.00 | 0.00 | 0.00 | 69 | 1013.0 |
| 20260506080406 | 64 | 265 | 2.0 | 7.0 | 0.00 | 0.00 | 0.00 | 67 | 1013.0 |
| 20260506073405 | 63 | 238 | 2.0 | 6.0 | 0.00 | 0.00 | 0.00 | 71 | 1013.0 |
| 20260506072905 | 63 | 241 | 2.0 | 8.0 | 0.00 | 0.00 | 0.00 | 72 | 1013.0 |
| 20260506072405 | 62 | 265 | 5.0 | 8.0 | 0.00 | 0.00 | 0.00 | 72 | 1013.0 |
| 20260506071905 | 62 | 265 | 3.0 | 7.0 | 0.00 | 0.00 | 0.00 | 72 | 1013.0 |
| 20260506071405 | 62 | 237 | 4.0 | 7.0 | 0.00 | 0.00 | 0.00 | 72 | 1013.0 |
| 20260506070907 | 62 | 222 | 3.0 | 7.0 | 0.00 | 0.00 | 0.00 | 74 | 1013.0 |
| 20260506070405 | 61 | 257 | 3.0 | 8.0 | 0.00 | 0.00 | 0.00 | 75 | 1013.0 |
| 20260506061905 | 60 | 248 | 5.0 | 8.0 | 0.00 | 0.03 | 0.00 | 75 | 1014.0 |
| 20260506061410 | 60 | 235 | 5.0 | 8.0 | 0.00 | 0.03 | 0.00 | 75 | 1013.0 |
| 20260506060405 | 59 | 250 | 5.0 | 10.0 | 0.00 | 0.08 | 0.00 | 76 | 1013.0 |
| 20260506051405 | 58 | 261 | 6.0 | 9.0 | 0.00 | 0.08 | 0.00 | 83 | 1013.0 |
| 20260506050905 | 58 | 246 | 5.0 | 8.0 | 0.00 | 0.08 | 0.00 | 82 | 1013.0 |
| 20260506050405 | 58 | 245 | 5.0 | 8.0 | 0.00 | 0.08 | 0.00 | 82 | 1013.0 |
| 20260506044905 | 59 | 198 | 6.0 | 10.0 | 0.00 | 0.08 | 0.00 | 81 | 1013.0 |
| 20260506044405 | 60 | 239 | 6.0 | 10.0 | 0.00 | 0.08 | 0.00 | 79 | 1013.0 |
| 20260506043405 | 60 | 258 | 5.0 | 8.0 | 0.00 | 0.08 | 0.00 | 79 | 1013.0 |